カタログに戻る

STARLINK-38019

運用中通信SSO
NORAD 69762·PAYLOAD·🇺🇸 United States

打ち上げ Jul 2, 2026 から Vandenberg Space Force Base

Loading…

次のパス (今後24時間)

TLE

最新Source: CelesTrak SupGP

元期: Sep 15, 2026, 03:27 UTC

1 69762C 26150Z   26258.14423611 -.01877700  00000+0 -15971-1 0  2582
2 69762  97.2850  99.5947 0001667  86.3946 336.0681 15.70560852    19

AllMySatでSTARLINK-38019をリアルタイム追跡

Download on the App Store